Weather History for Salinas, CA

Change the Weather History Date:

Thursday, May 16, 2013

  Actual Average Record
Temperature  
Mean Temperature 63 °F 59 °F  
Max Temperature 70 °F 68 °F 98 °F (2008)
Min Temperature 55 °F 50 °F 39 °F (1944)
Degree Days  
Heating Degree Days 2 6  
Month to date heating degree days 56 103  
Since 1 July heating degree days 2304 2492  
Cooling Degree Days 0 0  
Month to date cooling degree days 9 0  
Year to date cooling degree days 10 7  
Growing Degree Days 12 (Base 50)    
Moisture  
Dew Point 51 °F    
Average Humidity 70    
Maximum Humidity 86    
Minimum Humidity 53    
Precipitation  
Precipitation T in 0.01 in 0.11 in (2000)
Month to date precipitation T 0.22  
Year to date precipitation 2.28 8.50  
Since 1 July precipitation 8.92 12.61  
Sea Level Pressure  
Sea Level Pressure 30.06 in    
Wind  
Wind Speed 9 mph (WSW)    
Max Wind Speed 17 mph    
Max Gust Speed 23 mph    
Visibility 10 miles    
Events Rain    
T = Trace of Precipitation, MM = Missing Value Source: NWS Daily Summary

Daily Weather History Graph

Daily Weather History Graph

Search for Another Location

Airport:

Trip Planner

Search our weather history database for the weather conditions in past years. The results will help you decide how hot, cold, wet, or windy it might be!

Date:

Astronomy

May. 16, 2013 Rise Set
Actual Time 5:58 AM PDT 8:07 PM PDT
Civil Twilight 5:29 AM PDT 8:37 PM PDT
Nautical Twilight 4:53 AM PDT 9:12 PM PDT
Astronomical Twilight 4:15 AM PDT 9:51 PM PDT
Moon 11:33 AM PDT (5/16) 12:34 AM PDT (5/16)
Length of Visible Light 15h 07m
Length of Day
14h 09m
Waxing Crescent, 36% of the Moon is Illuminated
May 16
Waxing Crescent
May 17
First Quarter
May 24
Full
May 31
Last Quarter
Jun 8
New

Hourly Weather History & Observations

Time (PDT) Temp. Dew Point Humidity Pressure Visibility Wind Dir Wind Speed Gust Speed Precip Events Conditions
12:11 AM 55.4 °F 50.0 °F 82% 30.08 in 10.0 mi WSW 9.2 mph - N/A   Overcast
12:53 AM 55.0 °F 50.0 °F 83% 30.10 in 10.0 mi WSW 10.4 mph - N/A   Mostly Cloudy
1:05 AM 55.4 °F 50.0 °F 82% 30.07 in 10.0 mi WSW 8.1 mph - N/A   Scattered Clouds
1:14 AM 55.4 °F 50.0 °F 82% 30.07 in 10.0 mi WSW 9.2 mph - N/A   Mostly Cloudy
1:23 AM 55.4 °F 50.0 °F 82% 30.07 in 10.0 mi West 6.9 mph - N/A   Mostly Cloudy
1:53 AM 55.9 °F 50.0 °F 80% 30.09 in 10.0 mi WSW 10.4 mph - N/A   Mostly Cloudy
2:00 AM 55.4 °F 50.0 °F 82% 30.06 in 10.0 mi West 9.2 mph - N/A   Scattered Clouds
2:53 AM 55.0 °F 50.0 °F 83% 30.08 in 10.0 mi WSW 8.1 mph - N/A   Scattered Clouds
3:10 AM 55.4 °F 50.0 °F 82% 30.05 in 10.0 mi West 8.1 mph - N/A   Mostly Cloudy
3:32 AM 55.4 °F 50.0 °F 82% 30.05 in 10.0 mi West 10.4 mph - N/A   Mostly Cloudy
3:53 AM 55.0 °F 50.0 °F 83% 30.07 in 10.0 mi West 6.9 mph - N/A   Mostly Cloudy
4:53 AM 55.9 °F 50.0 °F 80% 30.07 in 10.0 mi WSW 9.2 mph - N/A   Scattered Clouds
5:03 AM 55.4 °F 50.0 °F 82% 30.04 in 10.0 mi WSW 11.5 mph - N/A   Mostly Cloudy
5:53 AM 55.9 °F 50.0 °F 80% 30.06 in 10.0 mi WSW 9.2 mph - N/A   Mostly Cloudy
6:10 AM 55.4 °F 50.0 °F 82% 30.04 in 10.0 mi WSW 5.8 mph - N/A   Overcast
6:53 AM 55.9 °F 51.1 °F 84% 30.07 in 10.0 mi West 8.1 mph - N/A   Overcast
7:33 AM 55.4 °F 51.8 °F 88% 30.06 in 10.0 mi WSW 12.7 mph - N/A   Mostly Cloudy
7:44 AM 57.2 °F 51.8 °F 82% 30.06 in 10.0 mi WSW 11.5 mph - N/A   Mostly Cloudy
7:51 AM 57.2 °F 51.8 °F 82% 30.06 in 10.0 mi WSW 10.4 mph - N/A   Mostly Cloudy
7:53 AM 57.0 °F 52.0 °F 83% 30.09 in 10.0 mi WSW 11.5 mph - N/A   Scattered Clouds
8:18 AM 57.2 °F 51.8 °F 82% 30.07 in 10.0 mi WSW 12.7 mph - N/A   Mostly Cloudy
8:53 AM 55.9 °F 53.1 °F 90% 30.11 in 8.0 mi WSW 9.2 mph - 0.00 in Rain Light Rain
9:34 AM 57.2 °F 53.6 °F 88% 30.07 in 10.0 mi West 5.8 mph - 0.00 in   Overcast
9:46 AM 57.2 °F 53.6 °F 88% 30.07 in 10.0 mi WSW 9.2 mph - 0.00 in   Overcast
9:53 AM 57.9 °F 52.0 °F 81% 30.10 in 10.0 mi WSW 6.9 mph - 0.00 in   Overcast
10:36 AM 60.8 °F 53.6 °F 77% 30.07 in 10.0 mi West 5.8 mph - N/A   Mostly Cloudy
10:53 AM 61.0 °F 53.1 °F 75% 30.09 in 10.0 mi West 4.6 mph - N/A   Mostly Cloudy
11:05 AM 60.8 °F 53.6 °F 77% 30.06 in 10.0 mi Variable 3.5 mph - N/A   Scattered Clouds
11:53 AM 64.9 °F 53.1 °F 65% 30.09 in 10.0 mi Variable 3.5 mph - N/A   Clear
12:53 PM 69.1 °F 52.0 °F 54% 30.07 in 10.0 mi West 8.1 mph - N/A   Scattered Clouds
1:53 PM 68.0 °F 52.0 °F 56% 30.06 in 10.0 mi WSW 15.0 mph - N/A   Partly Cloudy
3:53 PM 64.0 °F 53.1 °F 67% 30.05 in 10.0 mi West 16.1 mph - N/A   Partly Cloudy
4:33 PM 62.6 °F 53.6 °F 72% 30.02 in 10.0 mi West 8.1 mph 16.1 mph N/A   Mostly Cloudy
4:53 PM 62.1 °F 52.0 °F 70% 30.05 in 10.0 mi WNW 8.1 mph - N/A   Mostly Cloudy
5:43 PM 60.8 °F 51.8 °F 72% 30.02 in 10.0 mi West 11.5 mph - N/A   Overcast
5:53 PM 59.0 °F 52.0 °F 78% 30.05 in 10.0 mi WNW 10.4 mph - N/A   Overcast
6:53 PM 59.0 °F 51.1 °F 75% 30.05 in 10.0 mi West 9.2 mph - N/A   Mostly Cloudy
7:02 PM 59.0 °F 51.8 °F 77% 30.02 in 10.0 mi WSW 9.2 mph - N/A   Scattered Clouds
7:53 PM 57.9 °F 48.0 °F 70% 30.05 in 10.0 mi WSW 8.1 mph - N/A   Clear
8:53 PM 57.0 °F 48.0 °F 72% 30.05 in 10.0 mi SW 9.2 mph - N/A   Partly Cloudy
9:53 PM 55.9 °F 48.9 °F 77% 30.07 in 10.0 mi WSW 10.4 mph - N/A   Clear
10:23 PM 55.4 °F 48.2 °F 77% 30.04 in 10.0 mi WSW 10.4 mph - N/A   Mostly Cloudy
10:32 PM 55.4 °F 48.2 °F 77% 30.04 in 10.0 mi WSW 9.2 mph - N/A   Mostly Cloudy
10:53 PM 55.9 °F 50.0 °F 80% 30.07 in 10.0 mi SW 10.4 mph - N/A   Overcast
11:39 PM 55.4 °F 48.2 °F 77% 30.04 in 10.0 mi SW 10.4 mph - N/A   Scattered Clouds
11:53 PM 55.0 °F 48.9 °F 80% 30.06 in 10.0 mi WSW 10.4 mph - N/A   Mostly Cloudy